Time,TemperatureF,DewpointF,PressureIn,WindDirection,WindDirectionDegrees,WindSpeedMPH,WindSpeedGustMPH,Humidity,HourlyPrecipIn,Conditions,Clouds,dailyrainin,SoftwareType,DateUTC
2013-03-05 00:04:00,22.6,18.5,30.05,WNW,287,0.0,4.7,84,0.00,,OVC,0.00,VWS V14.00,2013-03-05 05:04:00,
2013-03-05 00:09:00,22.7,18.6,30.05,WNW,287,0.0,4.7,84,0.00,,OVC,0.00,VWS V14.00,2013-03-05 05:09:00,
2013-03-05 00:14:00,22.7,18.6,30.05,WSW,255,0.0,4.7,84,0.00,,OVC,0.00,VWS V14.00,2013-03-05 05:14:00,
2013-03-05 00:19:00,22.8,18.7,30.06,WSW,255,0.0,4.7,84,0.00,,OVC,0.00,VWS V14.00,2013-03-05 05:19:00,
2013-03-05 00:24:00,22.8,18.7,30.06,West,259,0.0,4.7,84,0.00,,OVC,0.00,VWS V14.00,2013-03-05 05:24:00,
2013-03-05 00:29:00,23.0,18.7,30.06,WSW,246,1.4,6.4,83,0.00,,OVC,0.00,VWS V14.00,2013-03-05 05:29:00,
2013-03-05 00:30:00,22.9,18.8,30.06,WNW,297,2.5,4.7,84,0.00,,OVC,0.00,VWS V14.00,2013-03-05 05:30:00,
2013-03-05 00:34:00,23.1,18.8,30.06,West,277,1.6,6.4,83,0.00,,OVC,0.00,VWS V14.00,2013-03-05 05:34:00,
2013-03-05 00:39:00,23.0,18.6,30.06,WSW,250,2.4,6.4,83,0.00,,OVC,0.00,VWS V14.00,2013-03-05 05:39:00,
2013-03-05 00:44:00,23.1,18.7,30.07,WSW,256,0.0,6.4,83,0.00,,OVC,0.00,VWS V14.00,2013-03-05 05:44:00,
2013-03-05 00:49:00,23.1,18.7,30.07,WSW,256,0.0,6.4,83,0.00,,OVC,0.00,VWS V14.00,2013-03-05 05:49:00,
2013-03-05 00:54:00,23.1,18.7,30.07,WSW,256,0.0,6.4,83,0.00,,OVC,0.00,VWS V14.00,2013-03-05 05:54:00,
2013-03-05 00:59:00,23.1,18.5,30.07,NW,304,6.0,8.8,82,0.00,,OVC,0.00,VWS V14.00,2013-03-05 05:59:00,
2013-03-05 01:00:00,23.1,18.6,30.07,WSW,252,7.0,9.1,83,0.00,,OVC,0.00,VWS V14.00,2013-03-05 06:00:00,
2013-03-05 01:04:00,23.1,18.5,30.07,West,270,4.2,8.8,82,0.00,,OVC,0.00,VWS V14.00,2013-03-05 06:04:00,
2013-03-05 01:09:00,23.2,18.6,30.07,WSW,239,0.0,8.8,82,0.00,,OVC,0.00,VWS V14.00,2013-03-05 06:09:00,
2013-03-05 01:14:00,23.1,18.6,30.07,WSW,239,0.0,8.8,83,0.00,,OVC,0.00,VWS V14.00,2013-03-05 06:14:00,
2013-03-05 01:19:00,23.2,18.6,30.08,WSW,252,4.0,8.8,82,0.00,,OVC,0.00,VWS V14.00,2013-03-05 06:19:00,
2013-03-05 01:24:00,23.2,18.6,30.08,West,263,3.6,8.8,82,0.00,,OVC,0.00,VWS V14.00,2013-03-05 06:24:00,
2013-03-05 01:29:00,23.3,18.8,30.08,SSW,208,0.0,4.3,82,0.00,,OVC,0.00,VWS V14.00,2013-03-05 06:29:00,
2013-03-05 01:30:00,23.2,18.6,30.08,West,269,3.5,8.8,82,0.00,,OVC,0.00,VWS V14.00,2013-03-05 06:30:00,
2013-03-05 01:34:00,23.2,18.6,30.08,West,270,5.5,6.8,82,0.00,,OVC,0.00,VWS V14.00,2013-03-05 06:34:00,
2013-03-05 01:39:00,23.2,18.6,30.08,WNW,301,1.8,7.3,82,0.00,,OVC,0.00,VWS V14.00,2013-03-05 06:39:00,
2013-03-05 01:44:00,23.2,18.6,30.09,West,280,4.2,7.3,82,0.00,,OVC,0.00,VWS V14.00,2013-03-05 06:44:00,
2013-03-05 01:49:00,23.2,18.6,30.09,WNW,287,0.0,7.3,82,0.00,,OVC,0.00,VWS V14.00,2013-03-05 06:49:00,
2013-03-05 01:54:00,23.1,18.5,30.08,SW,219,0.0,7.3,82,0.00,,OVC,0.00,VWS V14.00,2013-03-05 06:54:00,
2013-03-05 01:59:00,23.1,18.6,30.08,West,262,0.0,3.7,82,0.00,,OVC,0.00,VWS V14.00,2013-03-05 06:59:00,
2013-03-05 02:00:00,23.1,18.5,30.08,West,262,3.3,7.3,82,0.00,,OVC,0.00,VWS V14.00,2013-03-05 07:00:00,
2013-03-05 02:04:00,23.1,18.6,30.08,West,270,2.6,5.5,83,0.00,,OVC,0.00,VWS V14.00,2013-03-05 07:04:00,
2013-03-05 02:09:00,23.0,18.5,30.08,SW,233,2.7,6.5,83,0.00,,OVC,0.00,VWS V14.00,2013-03-05 07:09:00,
2013-03-05 02:14:00,23.1,18.6,30.09,SSW,208,0.0,6.5,83,0.00,,OVC,0.00,VWS V14.00,2013-03-05 07:14:00,
2013-03-05 02:19:00,23.0,18.6,30.09,WNW,288,0.0,6.5,83,0.00,,OVC,0.00,VWS V14.00,2013-03-05 07:19:00,
2013-03-05 02:24:00,22.9,18.4,30.08,WSW,248,6.1,6.8,83,0.00,,OVC,0.00,VWS V14.00,2013-03-05 07:24:00,
2013-03-05 02:29:00,22.9,18.4,30.08,West,260,3.2,8.2,83,0.00,,OVC,0.00,VWS V14.00,2013-03-05 07:29:00,
2013-03-05 02:30:00,23.0,18.5,30.08,West,262,3.2,6.8,83,0.00,,OVC,0.00,VWS V14.00,2013-03-05 07:30:00,
2013-03-05 02:34:00,23.0,18.5,30.09,WNW,290,2.4,8.2,83,0.00,,OVC,0.00,VWS V14.00,2013-03-05 07:34:00,
2013-03-05 02:39:00,22.9,18.4,30.09,SW,236,3.4,8.2,83,0.00,,OVC,0.00,VWS V14.00,2013-03-05 07:39:00,
2013-03-05 02:44:00,22.9,18.4,30.09,WNW,285,0.0,8.2,83,0.00,,OVC,0.00,VWS V14.00,2013-03-05 07:44:00,
2013-03-05 02:49:00,22.8,18.2,30.09,West,264,4.9,8.2,82,0.00,,OVC,0.00,VWS V14.00,2013-03-05 07:49:00,
2013-03-05 02:54:00,22.9,18.4,30.09,West,270,5.2,8.2,83,0.00,,OVC,0.00,VWS V14.00,2013-03-05 07:54:00,
2013-03-05 02:59:00,22.9,18.4,30.09,WNW,298,1.4,3.9,83,0.00,,OVC,0.00,VWS V14.00,2013-03-05 07:59:00,
2013-03-05 03:00:00,22.9,18.4,30.09,West,276,1.8,8.2,83,0.00,,OVC,0.00,VWS V14.00,2013-03-05 08:00:00,
2013-03-05 03:04:00,22.9,18.4,30.09,West,271,3.7,5.1,83,0.00,,OVC,0.00,VWS V14.00,2013-03-05 08:04:00,
2013-03-05 03:09:00,22.8,18.4,30.10,WSW,253,0.0,5.1,83,0.00,,OVC,0.00,VWS V14.00,2013-03-05 08:09:00,
2013-03-05 03:14:00,22.8,18.4,30.10,WSW,257,2.2,5.1,83,0.00,,OVC,0.00,VWS V14.00,2013-03-05 08:14:00,
2013-03-05 03:19:00,22.7,18.3,30.10,SW,228,2.9,5.7,83,0.00,,OVC,0.00,VWS V14.00,2013-03-05 08:19:00,
2013-03-05 03:24:00,22.7,18.3,30.10,West,262,4.2,7.6,83,0.00,,OVC,0.00,VWS V14.00,2013-03-05 08:24:00,
2013-03-05 03:29:00,22.6,18.2,30.10,West,266,1.7,6.9,83,0.00,,OVC,0.00,VWS V14.00,2013-03-05 08:29:00,
2013-03-05 03:30:00,22.6,18.2,30.10,West,269,5.3,7.6,83,0.00,,OVC,0.00,VWS V14.00,2013-03-05 08:30:00,
2013-03-05 03:34:00,22.7,18.3,30.10,WSW,250,0.0,6.9,83,0.00,,OVC,0.00,VWS V14.00,2013-03-05 08:34:00,
2013-03-05 03:39:00,22.6,18.2,30.10,WSW,250,5.9,6.9,83,0.00,,OVC,0.00,VWS V14.00,2013-03-05 08:39:00,
2013-03-05 03:44:00,22.6,18.2,30.10,WSW,257,0.8,6.9,83,0.00,,OVC,0.00,VWS V14.00,2013-03-05 08:44:00,
2013-03-05 03:49:00,22.7,18.3,30.11,WSW,253,3.1,6.9,83,0.00,,OVC,0.00,VWS V14.00,2013-03-05 08:49:00,
2013-03-05 03:54:00,22.7,18.3,30.11,WSW,238,2.2,6.9,83,0.00,,OVC,0.00,VWS V14.00,2013-03-05 08:54:00,
2013-03-05 03:59:00,22.7,18.4,30.11,WSW,257,2.5,4.5,83,0.00,,OVC,0.00,VWS V14.00,2013-03-05 08:59:00,
2013-03-05 04:00:00,22.6,18.2,30.11,WSW,246,2.3,6.9,83,0.00,,OVC,0.00,VWS V14.00,2013-03-05 09:00:00,
2013-03-05 04:04:00,22.6,18.3,30.11,West,267,2.9,5.5,83,0.00,,OVC,0.00,VWS V14.00,2013-03-05 09:04:00,
2013-03-05 04:09:00,22.5,18.2,30.11,West,264,4.9,5.5,83,0.00,,OVC,0.00,VWS V14.00,2013-03-05 09:09:00,
2013-03-05 04:14:00,22.5,18.2,30.12,West,266,4.0,5.5,83,0.00,,OVC,0.00,VWS V14.00,2013-03-05 09:14:00,
2013-03-05 04:19:00,22.7,18.4,30.12,SSW,197,0.0,5.5,83,0.00,,OVC,0.00,VWS V14.00,2013-03-05 09:19:00,
2013-03-05 04:24:00,22.4,18.1,30.12,WSW,239,3.4,5.5,83,0.00,,OVC,0.00,VWS V14.00,2013-03-05 09:24:00,
2013-03-05 04:29:00,22.4,18.1,30.12,SSW,197,1.7,6.7,83,0.00,,OVC,0.00,VWS V14.00,2013-03-05 09:29:00,
2013-03-05 04:30:00,22.5,18.2,30.12,West,274,3.0,5.5,83,0.00,,OVC,0.00,VWS V14.00,2013-03-05 09:30:00,
2013-03-05 04:34:00,22.4,18.2,30.12,West,260,5.5,6.7,84,0.00,,OVC,0.00,VWS V14.00,2013-03-05 09:34:00,
2013-03-05 04:40:00,22.4,18.1,30.12,West,280,6.6,7.2,83,0.00,,OVC,0.00,VWS V14.00,2013-03-05 09:40:00,
2013-03-05 04:45:00,22.4,18.2,30.13,West,274,4.4,7.2,84,0.00,,OVC,0.00,VWS V14.00,2013-03-05 09:45:00,
2013-03-05 04:50:00,22.4,18.2,30.13,WNW,297,3.6,7.2,84,0.00,,OVC,0.00,VWS V14.00,2013-03-05 09:50:00,
2013-03-05 04:55:00,22.4,18.2,30.13,West,270,0.0,7.2,84,0.00,,OVC,0.00,VWS V14.00,2013-03-05 09:55:00,
2013-03-05 05:00:00,22.4,18.2,30.13,West,270,0.0,0.0,84,0.00,,OVC,0.00,VWS V14.00,2013-03-05 10:00:00,
2013-03-05 05:05:00,22.3,18.1,30.13,West,264,0.6,5.6,84,0.00,,OVC,0.00,VWS V14.00,2013-03-05 10:05:00,
2013-03-05 05:10:00,22.3,18.1,30.13,West,264,4.0,7.3,84,0.00,,OVC,0.00,VWS V14.00,2013-03-05 10:10:00,
2013-03-05 05:15:00,22.3,18.0,30.13,WSW,238,1.8,7.3,83,0.00,,OVC,0.00,VWS V14.00,2013-03-05 10:15:00,
2013-03-05 05:20:00,22.0,17.8,30.13,SW,221,2.9,7.3,84,0.00,,OVC,0.00,VWS V14.00,2013-03-05 10:20:00,
2013-03-05 05:25:00,22.2,18.0,30.14,WSW,248,0.0,7.3,83,0.00,,OVC,0.00,VWS V14.00,2013-03-05 10:25:00,
2013-03-05 05:30:00,22.3,18.1,30.14,WSW,257,0.0,6.4,84,0.00,,OVC,0.00,VWS V14.00,2013-03-05 10:30:00,
2013-03-05 05:35:00,22.2,18.0,30.14,West,277,1.8,6.4,84,0.00,,OVC,0.00,VWS V14.00,2013-03-05 10:35:00,
2013-03-05 05:40:00,22.2,18.0,30.14,West,280,2.8,6.4,84,0.00,,OVC,0.00,VWS V14.00,2013-03-05 10:40:00,
2013-03-05 05:45:00,22.3,18.1,30.14,WSW,256,0.0,6.4,84,0.00,,OVC,0.00,VWS V14.00,2013-03-05 10:45:00,
2013-03-05 05:50:00,22.2,18.0,30.14,WSW,256,0.0,6.4,84,0.00,,OVC,0.00,VWS V14.00,2013-03-05 10:50:00,
2013-03-05 05:55:00,22.4,18.2,30.15,WSW,256,0.0,6.4,84,0.00,,OVC,0.00,VWS V14.00,2013-03-05 10:55:00,
2013-03-05 06:00:00,22.3,18.1,30.15,WSW,256,0.0,0.0,84,0.00,,OVC,0.00,VWS V14.00,2013-03-05 11:00:00,
2013-03-05 06:05:00,22.2,18.0,30.15,WSW,256,0.0,0.0,84,0.00,,OVC,0.00,VWS V14.00,2013-03-05 11:05:00,
2013-03-05 06:10:00,22.0,17.9,30.15,WSW,256,0.0,0.0,84,0.00,,OVC,0.00,VWS V14.00,2013-03-05 11:10:00,
2013-03-05 06:15:00,22.3,18.1,30.15,WSW,256,0.0,0.0,84,0.00,,OVC,0.00,VWS V14.00,2013-03-05 11:15:00,
2013-03-05 06:20:00,22.3,18.1,30.15,WSW,256,0.0,0.0,84,0.00,,OVC,0.00,VWS V14.00,2013-03-05 11:20:00,
2013-03-05 06:25:00,22.3,18.1,30.15,SW,232,0.0,2.1,84,0.00,,OVC,0.00,VWS V14.00,2013-03-05 11:25:00,
2013-03-05 06:30:00,22.2,18.1,30.15,SW,232,0.0,0.0,84,0.00,,OVC,0.00,VWS V14.00,2013-03-05 11:30:00,
2013-03-05 06:35:00,22.3,18.1,30.15,SW,232,0.0,0.0,84,0.00,,OVC,0.00,VWS V14.00,2013-03-05 11:35:00,
2013-03-05 06:40:00,22.4,18.2,30.15,SW,232,0.0,0.0,84,0.00,,OVC,0.00,VWS V14.00,2013-03-05 11:40:00,
2013-03-05 06:45:00,22.4,18.2,30.15,SW,214,0.0,3.0,84,0.00,,OVC,0.00,VWS V14.00,2013-03-05 11:45:00,
2013-03-05 06:50:00,22.2,18.0,30.16,SW,214,0.0,3.0,84,0.00,,OVC,0.00,VWS V14.00,2013-03-05 11:50:00,
2013-03-05 06:55:00,22.2,18.0,30.16,SW,214,0.0,3.0,84,0.00,,OVC,0.00,VWS V14.00,2013-03-05 11:55:00,
2013-03-05 07:00:00,22.3,18.1,30.16,WSW,239,2.3,4.3,84,0.00,,OVC,0.00,VWS V14.00,2013-03-05 12:00:00,
2013-03-05 07:05:00,22.4,18.1,30.16,WSW,245,2.4,5.5,83,0.00,,OVC,0.00,VWS V14.00,2013-03-05 12:05:00,
2013-03-05 07:10:00,22.3,18.0,30.16,SW,232,2.4,5.5,83,0.00,,OVC,0.00,VWS V14.00,2013-03-05 12:10:00,
2013-03-05 07:15:00,22.4,18.1,30.16,SW,217,1.9,5.5,83,0.00,,OVC,0.00,VWS V14.00,2013-03-05 12:15:00,
2013-03-05 07:20:00,22.5,18.2,30.17,WSW,238,1.6,5.5,83,0.00,,OVC,0.00,VWS V14.00,2013-03-05 12:20:00,
2013-03-05 07:25:00,22.4,18.0,30.17,SW,225,1.9,5.5,83,0.00,,OVC,0.00,VWS V14.00,2013-03-05 12:25:00,
2013-03-05 07:30:00,22.5,18.1,30.17,WSW,242,2.3,2.9,83,0.00,,OVC,0.00,VWS V14.00,2013-03-05 12:30:00,
2013-03-05 07:35:00,22.5,18.0,30.16,SW,214,3.1,7.3,82,0.00,,OVC,0.00,VWS V14.00,2013-03-05 12:35:00,
2013-03-05 07:40:00,22.7,18.3,30.16,SW,222,4.2,7.3,83,0.00,,OVC,0.00,VWS V14.00,2013-03-05 12:40:00,
2013-03-05 07:45:00,22.9,18.5,30.17,WNW,283,4.2,7.3,83,0.00,,OVC,0.00,VWS V14.00,2013-03-05 12:45:00,
2013-03-05 07:50:00,23.0,18.5,30.17,WNW,285,0.0,7.3,82,0.00,,OVC,0.00,VWS V14.00,2013-03-05 12:50:00,
2013-03-05 07:55:00,23.0,18.4,30.17,SW,231,0.0,7.3,82,0.00,,OVC,0.00,VWS V14.00,2013-03-05 12:55:00,
2013-03-05 08:00:00,22.9,18.2,30.16,SW,222,5.2,5.3,82,0.00,,OVC,0.00,VWS V14.00,2013-03-05 13:00:00,
2013-03-05 08:05:00,22.7,18.0,30.16,SW,221,2.7,5.3,82,0.00,,OVC,0.00,VWS V14.00,2013-03-05 13:05:00,
2013-03-05 08:10:00,23.2,18.6,30.17,WSW,250,0.0,5.3,82,0.00,,OVC,0.00,VWS V14.00,2013-03-05 13:10:00,
2013-03-05 08:15:00,23.1,18.4,30.17,WSW,250,0.0,5.3,82,0.00,,OVC,0.00,VWS V14.00,2013-03-05 13:15:00,
2013-03-05 08:20:00,23.2,18.4,30.17,SSW,207,0.0,5.3,81,0.00,,OVC,0.00,VWS V14.00,2013-03-05 13:20:00,
2013-03-05 08:25:00,23.2,18.3,30.17,SSW,207,0.0,6.0,81,0.00,,OVC,0.00,VWS V14.00,2013-03-05 13:25:00,
2013-03-05 08:30:00,23.5,18.7,30.17,WSW,252,4.3,5.3,82,0.00,,OVC,0.00,VWS V14.00,2013-03-05 13:30:00,
2013-03-05 08:35:00,23.6,18.6,30.17,SW,217,1.4,5.3,81,0.00,,OVC,0.00,VWS V14.00,2013-03-05 13:35:00,
2013-03-05 08:40:00,23.6,18.6,30.17,WSW,256,1.1,6.6,81,0.00,,OVC,0.00,VWS V14.00,2013-03-05 13:40:00,
2013-03-05 08:45:00,23.6,18.7,30.17,WSW,253,3.6,6.6,81,0.00,,OVC,0.00,VWS V14.00,2013-03-05 13:45:00,
2013-03-05 08:50:00,23.6,18.5,30.17,SSW,212,3.2,6.6,81,0.00,,OVC,0.00,VWS V14.00,2013-03-05 13:50:00,
2013-03-05 08:55:00,23.9,18.8,30.17,ESE,105,0.0,6.6,80,0.00,,OVC,0.00,VWS V14.00,2013-03-05 13:55:00,
2013-03-05 09:00:00,23.9,18.6,30.17,SSW,212,3.6,6.0,80,0.00,,OVC,0.00,VWS V14.00,2013-03-05 14:00:00,
2013-03-05 09:05:00,24.2,19.0,30.17,WSW,250,0.0,6.1,80,0.00,,OVC,0.00,VWS V14.00,2013-03-05 14:05:00,
2013-03-05 09:10:00,24.0,18.6,30.17,WSW,250,1.7,6.4,80,0.00,,OVC,0.00,VWS V14.00,2013-03-05 14:10:00,
2013-03-05 09:15:00,24.0,18.8,30.17,West,270,2.4,6.4,80,0.00,,OVC,0.00,VWS V14.00,2013-03-05 14:15:00,
2013-03-05 09:20:00,24.2,19.1,30.17,WSW,255,0.0,6.4,80,0.00,,OVC,0.00,VWS V14.00,2013-03-05 14:20:00,
2013-03-05 09:25:00,24.2,19.0,30.17,West,276,3.8,6.4,80,0.00,,OVC,0.00,VWS V14.00,2013-03-05 14:25:00,
2013-03-05 09:30:00,24.2,19.1,30.17,West,277,4.3,6.8,81,0.00,,OVC,0.00,VWS V14.00,2013-03-05 14:30:00,
2013-03-05 09:35:00,24.4,19.4,30.17,WNW,298,4.3,6.8,81,0.00,,OVC,0.00,VWS V14.00,2013-03-05 14:35:00,
2013-03-05 09:40:00,24.5,19.0,30.17,West,273,4.9,7.3,79,0.00,,OVC,0.00,VWS V14.00,2013-03-05 14:40:00,
2013-03-05 09:45:00,24.8,19.4,30.17,South,190,1.6,7.3,80,0.00,,OVC,0.00,VWS V14.00,2013-03-05 14:45:00,
2013-03-05 09:50:00,25.2,19.7,30.17,SSW,201,0.0,7.3,79,0.00,,OVC,0.00,VWS V14.00,2013-03-05 14:50:00,
2013-03-05 09:55:00,25.4,19.5,30.17,SW,226,1.9,7.3,78,0.00,,OVC,0.00,VWS V14.00,2013-03-05 14:55:00,
2013-03-05 10:00:00,25.4,19.3,30.17,SSW,197,2.4,6.0,77,0.00,,OVC,0.00,VWS V14.00,2013-03-05 15:00:00,
2013-03-05 10:05:00,25.9,19.9,30.18,SW,215,0.0,6.0,78,0.00,,OVC,0.00,VWS V14.00,2013-03-05 15:05:00,
2013-03-05 10:10:00,26.1,20.0,30.18,South,181,0.0,6.0,77,0.00,,OVC,0.00,VWS V14.00,2013-03-05 15:10:00,
2013-03-05 10:15:00,26.5,20.3,30.18,SSW,193,0.0,6.0,77,0.00,,OVC,0.00,VWS V14.00,2013-03-05 15:15:00,
2013-03-05 10:20:00,26.4,19.9,30.18,SW,229,3.2,6.0,76,0.00,,OVC,0.00,VWS V14.00,2013-03-05 15:20:00,
2013-03-05 10:25:00,26.1,19.6,30.17,WSW,248,3.2,3.2,76,0.00,,OVC,0.00,VWS V14.00,2013-03-05 15:25:00,
2013-03-05 10:30:00,26.1,19.8,30.17,WNW,292,5.8,9.4,77,0.00,,OVC,0.00,VWS V14.00,2013-03-05 15:30:00,
2013-03-05 10:35:00,26.1,19.6,30.17,West,264,6.3,9.4,76,0.00,,OVC,0.00,VWS V14.00,2013-03-05 15:35:00,
2013-03-05 10:40:00,26.1,19.9,30.17,SW,229,3.6,9.4,77,0.00,,OVC,0.00,VWS V14.00,2013-03-05 15:40:00,
2013-03-05 10:45:00,26.0,19.5,30.17,SW,225,1.7,9.4,76,0.00,,OVC,0.00,VWS V14.00,2013-03-05 15:45:00,
2013-03-05 10:51:00,26.2,19.8,30.17,SW,231,5.1,9.4,76,0.00,,OVC,0.00,VWS V14.00,2013-03-05 15:51:00,
2013-03-05 10:56:00,26.4,20.0,30.17,SW,228,2.6,2.9,76,0.00,,OVC,0.00,VWS V14.00,2013-03-05 15:56:00,
2013-03-05 11:00:00,26.4,19.9,30.17,SW,219,2.9,9.4,76,0.00,,OVC,0.00,VWS V14.00,2013-03-05 16:00:00,
2013-03-05 11:01:00,26.9,20.4,30.17,South,183,0.0,4.2,76,0.00,,OVC,0.00,VWS V14.00,2013-03-05 16:01:00,
2013-03-05 11:06:00,27.2,20.5,30.17,SW,221,4.1,4.7,76,0.00,,OVC,0.00,VWS V14.00,2013-03-05 16:06:00,
2013-03-05 11:11:00,27.7,20.8,30.17,SSW,205,0.0,4.7,75,0.00,,OVC,0.00,VWS V14.00,2013-03-05 16:11:00,
2013-03-05 11:16:00,27.7,20.2,30.17,SW,225,2.1,4.7,73,0.00,,OVC,0.00,VWS V14.00,2013-03-05 16:16:00,
2013-03-05 11:21:00,27.8,20.5,30.17,South,173,2.8,5.7,74,0.00,,OVC,0.00,VWS V14.00,2013-03-05 16:21:00,
2013-03-05 11:26:00,28.2,21.0,30.17,SE,142,0.0,0.0,74,0.00,,OVC,0.00,VWS V14.00,2013-03-05 16:26:00,
2013-03-05 11:30:00,28.2,20.9,30.17,SE,142,0.0,5.7,74,0.00,,OVC,0.00,VWS V14.00,2013-03-05 16:30:00,
2013-03-05 11:31:00,28.4,20.5,30.17,West,269,0.0,5.0,72,0.00,,OVC,0.00,VWS V14.00,2013-03-05 16:31:00,
2013-03-05 11:36:00,28.5,21.3,30.17,WNW,302,0.0,6.6,74,0.00,,OVC,0.00,VWS V14.00,2013-03-05 16:36:00,
2013-03-05 11:41:00,28.8,21.2,30.17,SW,229,3.2,6.6,73,0.00,,OVC,0.00,VWS V14.00,2013-03-05 16:41:00,
2013-03-05 11:46:00,29.0,21.0,30.17,SE,136,0.0,6.6,72,0.00,,OVC,0.00,VWS V14.00,2013-03-05 16:46:00,
2013-03-05 11:51:00,29.3,21.1,30.17,SE,136,0.0,6.6,71,0.00,,OVC,0.00,VWS V14.00,2013-03-05 16:51:00,
2013-03-05 11:56:00,29.5,20.9,30.16,NNE,24,5.0,6.2,70,0.00,,OVC,0.00,VWS V14.00,2013-03-05 16:56:00,
2013-03-05 12:00:00,29.5,20.8,30.16,NNE,24,4.9,7.0,70,0.00,,OVC,0.00,VWS V14.00,2013-03-05 17:00:00,
2013-03-05 12:01:00,29.6,21.3,30.16,NE,34,0.0,6.2,71,0.00,,OVC,0.00,VWS V14.00,2013-03-05 17:01:00,
2013-03-05 12:06:00,30.0,20.9,30.16,NE,55,2.9,6.2,68,0.00,,OVC,0.00,VWS V14.00,2013-03-05 17:06:00,
2013-03-05 12:11:00,30.1,21.2,30.16,ENE,72,2.5,6.2,69,0.00,,OVC,0.00,VWS V14.00,2013-03-05 17:11:00,
2013-03-05 12:16:00,30.0,21.1,30.16,NNE,25,4.2,6.2,69,0.00,,OVC,0.00,VWS V14.00,2013-03-05 17:16:00,
2013-03-05 12:21:00,30.0,21.0,30.16,NE,52,2.0,6.2,69,0.00,,OVC,0.00,VWS V14.00,2013-03-05 17:21:00,
2013-03-05 12:26:00,29.7,21.4,30.15,NNE,24,1.6,2.3,71,0.00,,OVC,0.00,VWS V14.00,2013-03-05 17:26:00,
2013-03-05 12:30:00,29.5,21.1,30.16,NE,38,2.3,6.2,70,0.00,,OVC,0.00,VWS V14.00,2013-03-05 17:30:00,
2013-03-05 12:31:00,30.1,21.5,30.15,NE,55,1.2,3.0,70,0.00,,OVC,0.00,VWS V14.00,2013-03-05 17:31:00,
2013-03-05 12:36:00,30.7,21.5,30.15,NE,37,1.6,4.0,68,0.00,,OVC,0.00,VWS V14.00,2013-03-05 17:36:00,
2013-03-05 12:41:00,30.8,21.7,30.15,NNE,13,1.8,4.6,69,0.00,,OVC,0.00,VWS V14.00,2013-03-05 17:41:00,
2013-03-05 12:46:00,31.2,22.2,30.16,East,79,0.0,4.6,69,0.00,,OVC,0.00,VWS V14.00,2013-03-05 17:46:00,
2013-03-05 12:51:00,31.6,21.9,30.16,WSW,256,2.7,4.7,67,0.00,,OVC,0.00,VWS V14.00,2013-03-05 17:51:00,
2013-03-05 12:56:00,31.1,21.8,30.16,WNW,292,2.9,2.9,68,0.00,,OVC,0.00,VWS V14.00,2013-03-05 17:56:00,
2013-03-05 13:00:00,31.1,21.6,30.16,NW,305,2.4,6.6,68,0.00,,OVC,0.00,VWS V14.00,2013-03-05 18:00:00,
2013-03-05 13:01:00,31.2,22.0,30.16,WNW,291,0.0,4.8,68,0.00,,OVC,0.00,VWS V14.00,2013-03-05 18:01:00,
2013-03-05 13:06:00,31.4,22.1,30.16,NW,305,3.4,4.8,68,0.00,,OVC,0.00,VWS V14.00,2013-03-05 18:06:00,
2013-03-05 13:11:00,31.2,21.7,30.16,WNW,295,2.6,5.4,67,0.00,,OVC,0.00,VWS V14.00,2013-03-05 18:11:00,
2013-03-05 13:16:00,31.4,22.1,30.15,WSW,255,0.9,5.4,68,0.00,,OVC,0.00,VWS V14.00,2013-03-05 18:16:00,
2013-03-05 13:21:00,31.5,22.1,30.15,NE,56,2.2,5.4,68,0.00,,OVC,0.00,VWS V14.00,2013-03-05 18:21:00,
2013-03-05 13:26:00,31.6,22.1,30.15,North,11,2.2,3.0,68,0.00,,OVC,0.00,VWS V14.00,2013-03-05 18:26:00,
2013-03-05 13:30:00,31.6,22.3,30.15,NNE,21,2.7,5.4,68,0.00,,OVC,0.00,VWS V14.00,2013-03-05 18:30:00,
2013-03-05 13:31:00,32.0,22.1,30.15,NNE,24,5.2,5.7,66,0.00,,OVC,0.00,VWS V14.00,2013-03-05 18:31:00,
2013-03-05 13:36:00,32.1,22.2,30.15,NNE,30,4.2,5.7,67,0.00,,OVC,0.00,VWS V14.00,2013-03-05 18:36:00,
2013-03-05 13:41:00,32.1,22.4,30.15,NE,51,1.9,5.7,67,0.00,,OVC,0.00,VWS V14.00,2013-03-05 18:41:00,
2013-03-05 13:46:00,32.3,22.7,30.15,NNE,31,0.0,5.7,67,0.00,,OVC,0.00,VWS V14.00,2013-03-05 18:46:00,
2013-03-05 13:51:00,32.8,22.5,30.15,NNE,28,1.8,6.8,65,0.00,,OVC,0.00,VWS V14.00,2013-03-05 18:51:00,
2013-03-05 13:56:00,32.8,23.0,30.15,North,354,1.3,2.9,67,0.00,,OVC,0.00,VWS V14.00,2013-03-05 18:56:00,
2013-03-05 14:00:00,32.7,22.8,30.15,NNE,21,0.6,6.8,66,0.00,,OVC,0.00,VWS V14.00,2013-03-05 19:00:00,
2013-03-05 14:01:00,32.9,22.6,30.15,NNE,17,0.2,4.2,66,0.00,,OVC,0.00,VWS V14.00,2013-03-05 19:01:00,
2013-03-05 14:06:00,32.7,22.8,30.15,NNE,27,3.8,7.4,66,0.00,,OVC,0.00,VWS V14.00,2013-03-05 19:06:00,
2013-03-05 14:11:00,33.2,23.2,30.15,NNW,330,1.1,7.4,66,0.00,,OVC,0.00,VWS V14.00,2013-03-05 19:11:00,
2013-03-05 14:16:00,33.0,23.0,30.15,NNW,330,0.0,7.4,66,0.00,,OVC,0.00,VWS V14.00,2013-03-05 19:16:00,
2013-03-05 14:21:00,33.1,23.5,30.15,NNE,27,0.0,7.4,67,0.00,,OVC,0.00,VWS V14.00,2013-03-05 19:21:00,
2013-03-05 14:26:00,33.4,23.5,30.15,NE,52,1.7,2.3,66,0.00,,OVC,0.00,VWS V14.00,2013-03-05 19:26:00,
2013-03-05 14:30:00,33.3,23.3,30.16,North,7,0.0,7.4,66,0.00,,OVC,0.00,VWS V14.00,2013-03-05 19:30:00,
2013-03-05 14:31:00,33.9,24.0,30.16,ENE,60,4.4,5.2,67,0.00,,OVC,0.00,VWS V14.00,2013-03-05 19:31:00,
2013-03-05 14:36:00,33.4,23.5,30.15,NE,52,2.6,8.3,67,0.00,,OVC,0.00,VWS V14.00,2013-03-05 19:36:00,
2013-03-05 14:41:00,33.7,23.8,30.16,NNE,14,3.1,8.3,67,0.00,,OVC,0.00,VWS V14.00,2013-03-05 19:41:00,
2013-03-05 14:55:00,33.7,23.6,30.16,NNE,20,0.0,0.0,66,0.00,,OVC,0.00,VWS V14.00,2013-03-05 19:55:00,
2013-03-05 15:00:00,33.7,23.6,30.16,NNE,20,0.0,0.0,66,0.00,,SCT,0.00,VWS V14.00,2013-03-05 20:00:00,
2013-03-05 15:04:00,33.4,23.5,30.16,NNE,22,4.0,7.6,67,0.00,,OVC,0.00,VWS V14.00,2013-03-05 20:04:00,
2013-03-05 15:09:00,33.4,23.7,30.16,North,4,0.0,7.6,67,0.00,,OVC,0.00,VWS V14.00,2013-03-05 20:09:00,
2013-03-05 15:14:00,33.4,23.5,30.16,NNE,32,4.1,7.6,66,0.00,,OVC,0.00,VWS V14.00,2013-03-05 20:14:00,
2013-03-05 15:19:00,33.7,23.6,30.17,NNE,18,4.9,7.6,66,0.00,,OVC,0.00,VWS V14.00,2013-03-05 20:19:00,
2013-03-05 15:24:00,33.7,24.1,30.16,NNE,22,4.6,7.6,68,0.00,,OVC,0.00,VWS V14.00,2013-03-05 20:24:00,
2013-03-05 15:29:00,33.6,23.8,30.16,NNE,15,3.7,9.1,67,0.00,,OVC,0.00,VWS V14.00,2013-03-05 20:29:00,
2013-03-05 15:30:00,33.6,23.8,30.16,NNE,25,9.1,9.1,67,0.00,,SCT,0.00,VWS V14.00,2013-03-05 20:30:00,
2013-03-05 15:34:00,33.6,23.7,30.17,NNE,30,5.0,9.1,67,0.00,,OVC,0.00,VWS V14.00,2013-03-05 20:34:00,
2013-03-05 15:39:00,33.4,23.8,30.17,NNE,17,4.8,9.1,67,0.00,,OVC,0.00,VWS V14.00,2013-03-05 20:39:00,
2013-03-05 15:44:00,33.7,24.1,30.17,North,11,1.0,9.1,67,0.00,,OVC,0.00,VWS V14.00,2013-03-05 20:44:00,
2013-03-05 15:49:00,34.0,24.9,30.17,NNE,22,0.0,9.1,69,0.00,,OVC,0.00,VWS V14.00,2013-03-05 20:49:00,
2013-03-05 15:54:00,34.0,24.5,30.18,NNE,28,1.7,9.1,68,0.00,,OVC,0.00,VWS V14.00,2013-03-05 20:54:00,
2013-03-05 15:59:00,34.1,24.4,30.17,NNE,25,3.1,5.5,67,0.00,,OVC,0.00,VWS V14.00,2013-03-05 20:59:00,
2013-03-05 16:00:00,34.0,24.3,30.17,NE,53,3.1,9.1,67,0.00,,SCT,0.00,VWS V14.00,2013-03-05 21:00:00,
2013-03-05 16:04:00,33.8,24.3,30.18,NNE,28,5.6,7.1,68,0.00,,OVC,0.00,VWS V14.00,2013-03-05 21:04:00,
2013-03-05 16:09:00,34.0,24.4,30.17,NNE,13,3.9,7.1,67,0.00,,OVC,0.00,VWS V14.00,2013-03-05 21:09:00,
2013-03-05 16:14:00,34.3,24.5,30.17,NNE,31,2.9,7.1,67,0.00,,OVC,0.00,VWS V14.00,2013-03-05 21:14:00,
2013-03-05 16:19:00,34.8,24.8,30.17,North,1,1.7,7.1,66,0.00,,OVC,0.00,VWS V14.00,2013-03-05 21:19:00,
2013-03-05 16:24:00,35.1,24.8,30.17,NNE,15,6.3,8.1,66,0.00,,OVC,0.00,VWS V14.00,2013-03-05 21:24:00,
2013-03-05 16:29:00,35.1,24.9,30.17,North,10,2.5,8.4,66,0.00,,OVC,0.00,VWS V14.00,2013-03-05 21:29:00,
2013-03-05 16:30:00,35.1,25.2,30.16,NE,45,4.8,8.1,67,0.00,,SCT,0.00,VWS V14.00,2013-03-05 21:30:00,
2013-03-05 16:34:00,35.1,25.0,30.16,North,8,5.5,8.4,66,0.00,,OVC,0.00,VWS V14.00,2013-03-05 21:34:00,
2013-03-05 16:39:00,35.2,25.2,30.16,NE,39,4.7,8.4,67,0.00,,OVC,0.00,VWS V14.00,2013-03-05 21:39:00,
2013-03-05 16:44:00,35.2,25.2,30.16,NNE,14,3.9,8.4,67,0.00,,OVC,0.00,VWS V14.00,2013-03-05 21:44:00,
2013-03-05 16:49:00,35.2,25.4,30.16,NE,48,7.0,8.4,67,0.00,,OVC,0.00,VWS V14.00,2013-03-05 21:49:00,
2013-03-05 16:54:00,35.0,25.5,30.16,NNE,32,5.4,8.4,68,0.00,,OVC,0.00,VWS V14.00,2013-03-05 21:54:00,
2013-03-05 16:59:00,35.1,25.4,30.16,NNE,20,5.4,5.9,67,0.00,,OVC,0.00,VWS V14.00,2013-03-05 21:59:00,
2013-03-05 17:00:00,35.0,25.6,30.16,NNE,18,5.1,8.4,68,0.00,,SCT,0.00,VWS V14.00,2013-03-05 22:00:00,
2013-03-05 17:04:00,35.1,25.4,30.16,NNE,24,3.9,6.3,67,0.00,,OVC,0.00,VWS V14.00,2013-03-05 22:04:00,
2013-03-05 17:09:00,35.2,25.6,30.16,ENE,59,0.0,6.3,68,0.00,,OVC,0.00,VWS V14.00,2013-03-05 22:09:00,
2013-03-05 17:14:00,35.2,25.8,30.16,NNE,28,0.0,6.3,68,0.00,,OVC,0.00,VWS V14.00,2013-03-05 22:14:00,
2013-03-05 17:19:00,35.1,25.7,30.16,NNE,31,5.5,6.3,68,0.00,,OVC,0.00,VWS V14.00,2013-03-05 22:19:00,
2013-03-05 17:24:00,34.9,25.4,30.16,NNE,13,5.1,6.8,68,0.00,,OVC,0.00,VWS V14.00,2013-03-05 22:24:00,
2013-03-05 17:29:00,34.9,25.5,30.16,North,349,0.0,6.4,68,0.00,,OVC,0.00,VWS V14.00,2013-03-05 22:29:00,
2013-03-05 17:30:00,34.8,25.3,30.16,NNE,15,3.2,6.8,68,0.00,,SCT,0.00,VWS V14.00,2013-03-05 22:30:00,
2013-03-05 17:34:00,34.8,25.4,30.16,North,4,0.0,6.4,68,0.00,,OVC,0.00,VWS V14.00,2013-03-05 22:34:00,
2013-03-05 17:39:00,34.7,25.5,30.16,North,4,0.0,6.4,69,0.00,,OVC,0.00,VWS V14.00,2013-03-05 22:39:00,
2013-03-05 17:44:00,34.5,25.4,30.16,North,7,0.0,6.4,69,0.00,,FEW,0.00,VWS V14.00,2013-03-05 22:44:00,
2013-03-05 17:49:00,34.2,25.4,30.15,North,7,0.0,6.4,70,0.00,,FEW,0.00,VWS V14.00,2013-03-05 22:49:00,
2013-03-05 17:54:00,33.6,25.2,30.16,NNE,21,3.7,6.4,71,0.00,,FEW,0.00,VWS V14.00,2013-03-05 22:54:00,
2013-03-05 17:59:00,33.2,25.3,30.16,NNE,25,2.4,4.0,72,0.00,,FEW,0.00,VWS V14.00,2013-03-05 22:59:00,
2013-03-05 18:00:00,33.5,25.3,30.16,North,4,2.5,6.4,72,0.00,,SCT,0.00,VWS V14.00,2013-03-05 23:00:00,
2013-03-05 18:04:00,32.8,25.2,30.16,NE,35,3.4,6.3,73,0.00,,FEW,0.00,VWS V14.00,2013-03-05 23:04:00,
2013-03-05 18:09:00,32.2,24.9,30.16,NNE,22,4.2,6.5,74,0.00,,FEW,0.00,VWS V14.00,2013-03-05 23:09:00,
2013-03-05 18:14:00,32.1,24.8,30.16,NE,34,4.8,7.1,74,0.00,,FEW,0.00,VWS V14.00,2013-03-05 23:14:00,
2013-03-05 18:19:00,32.1,24.9,30.16,NNE,27,3.7,7.1,74,0.00,,FEW,0.00,VWS V14.00,2013-03-05 23:19:00,
2013-03-05 18:24:00,32.0,24.8,30.16,NNE,21,3.0,7.1,74,0.00,,FEW,0.00,VWS V14.00,2013-03-05 23:24:00,
2013-03-05 18:29:00,31.7,24.8,30.16,NNE,14,3.0,4.6,75,0.00,,FEW,0.00,VWS V14.00,2013-03-05 23:29:00,
2013-03-05 18:30:00,31.9,24.9,30.16,NNE,14,3.4,7.1,75,0.00,,SCT,0.00,VWS V14.00,2013-03-05 23:30:00,
2013-03-05 18:34:00,31.5,24.8,30.16,NNE,14,2.2,5.5,76,0.00,,FEW,0.00,VWS V14.00,2013-03-05 23:34:00,
2013-03-05 18:39:00,31.3,24.7,30.16,NNE,17,2.7,5.5,76,0.00,,FEW,0.00,VWS V14.00,2013-03-05 23:39:00,
2013-03-05 18:44:00,31.2,24.7,30.17,NNE,31,0.0,5.5,77,0.00,,FEW,0.00,VWS V14.00,2013-03-05 23:44:00,
2013-03-05 18:49:00,30.9,24.5,30.17,NNE,24,1.0,5.5,77,0.00,,FEW,0.00,VWS V14.00,2013-03-05 23:49:00,
2013-03-05 18:54:00,30.6,24.2,30.17,NNE,24,0.0,5.5,77,0.00,,FEW,0.00,VWS V14.00,2013-03-05 23:54:00,
2013-03-05 18:59:00,30.2,24.2,30.17,NNE,24,0.0,0.0,78,0.00,,FEW,0.00,VWS V14.00,2013-03-05 23:59:00,
2013-03-05 19:00:00,30.5,24.2,30.17,NNE,24,0.0,5.5,77,0.00,,SCT,0.00,VWS V14.00,2013-03-06 00:00:00,
2013-03-05 19:04:00,29.9,24.3,30.16,NNE,24,0.0,4.0,79,0.00,,FEW,0.00,VWS V14.00,2013-03-06 00:04:00,
2013-03-05 19:10:00,29.6,24.2,30.16,NE,41,4.1,4.7,80,0.00,,FEW,0.00,VWS V14.00,2013-03-06 00:10:00,
2013-03-05 19:15:00,29.5,24.1,30.16,NE,37,4.4,6.6,80,0.00,,FEW,0.00,VWS V14.00,2013-03-06 00:15:00,
2013-03-05 19:20:00,29.5,24.2,30.16,NNE,21,3.5,6.6,80,0.00,,FEW,0.00,VWS V14.00,2013-03-06 00:20:00,
2013-03-05 19:25:00,29.5,24.1,30.16,NE,45,2.3,6.6,80,0.00,,FEW,0.00,VWS V14.00,2013-03-06 00:25:00,
2013-03-05 19:30:00,29.5,24.2,30.16,NE,35,2.1,5.5,80,0.00,,FEW,0.00,VWS V14.00,2013-03-06 00:30:00,
2013-03-05 19:35:00,29.2,24.2,30.16,NNE,24,4.5,6.0,81,0.00,,FEW,0.00,VWS V14.00,2013-03-06 00:35:00,
2013-03-05 19:40:00,29.4,24.2,30.16,NE,55,3.0,7.9,81,0.00,,FEW,0.00,VWS V14.00,2013-03-06 00:40:00,
2013-03-05 19:45:00,29.4,24.3,30.16,NNE,32,3.6,7.9,81,0.00,,FEW,0.00,VWS V14.00,2013-03-06 00:45:00,
2013-03-05 19:50:00,29.4,24.3,30.16,NNE,31,3.9,7.9,81,0.00,,FEW,0.00,VWS V14.00,2013-03-06 00:50:00,
2013-03-05 19:55:00,29.2,24.2,30.16,NE,49,0.0,7.9,81,0.00,,FEW,0.00,VWS V14.00,2013-03-06 00:55:00,
2013-03-05 20:00:00,29.2,24.2,30.16,NE,35,2.5,6.4,82,0.00,,FEW,0.00,VWS V14.00,2013-03-06 01:00:00,
2013-03-05 20:05:00,29.1,24.2,30.16,NE,38,0.0,6.4,82,0.00,,FEW,0.00,VWS V14.00,2013-03-06 01:05:00,
2013-03-05 20:10:00,28.8,24.0,30.15,NNE,32,2.7,6.4,82,0.00,,FEW,0.00,VWS V14.00,2013-03-06 01:10:00,
2013-03-05 20:15:00,28.7,23.9,30.15,NE,53,0.0,6.4,82,0.00,,FEW,0.00,VWS V14.00,2013-03-06 01:15:00,
2013-03-05 20:20:00,28.3,23.7,30.16,NNE,20,2.4,6.4,83,0.00,,FEW,0.00,VWS V14.00,2013-03-06 01:20:00,
2013-03-05 20:25:00,28.4,23.9,30.15,NNE,31,4.7,6.4,83,0.00,,FEW,0.00,VWS V14.00,2013-03-06 01:25:00,
2013-03-05 20:30:00,28.3,23.7,30.15,NE,46,1.8,6.2,83,0.00,,FEW,0.00,VWS V14.00,2013-03-06 01:30:00,
2013-03-05 20:35:00,28.2,23.8,30.15,NNE,32,1.7,6.2,83,0.00,,FEW,0.00,VWS V14.00,2013-03-06 01:35:00,
2013-03-05 20:40:00,28.1,23.7,30.15,NE,49,1.6,6.2,83,0.00,,FEW,0.00,VWS V14.00,2013-03-06 01:40:00,
2013-03-05 20:45:00,28.0,23.7,30.15,NE,38,3.2,6.2,84,0.00,,FEW,0.00,VWS V14.00,2013-03-06 01:45:00,
2013-03-05 20:50:00,28.1,23.8,30.15,ENE,76,0.0,6.2,84,0.00,,FEW,0.00,VWS V14.00,2013-03-06 01:50:00,
2013-03-05 20:55:00,27.9,23.6,30.15,ENE,76,0.0,6.2,84,0.00,,FEW,0.00,VWS V14.00,2013-03-06 01:55:00,
2013-03-05 21:00:00,27.8,23.6,30.15,NE,34,4.8,5.8,84,0.00,,FEW,0.00,VWS V14.00,2013-03-06 02:00:00,
2013-03-05 21:05:00,27.6,23.5,30.15,NE,48,0.0,5.8,84,0.00,,FEW,0.00,VWS V14.00,2013-03-06 02:05:00,
2013-03-05 21:10:00,27.4,23.4,30.15,NNE,25,3.0,5.8,85,0.00,,FEW,0.00,VWS V14.00,2013-03-06 02:10:00,
2013-03-05 21:15:00,27.4,23.5,30.15,NE,39,0.0,5.8,85,0.00,,FEW,0.00,VWS V14.00,2013-03-06 02:15:00,
2013-03-05 21:20:00,27.4,23.5,30.15,NE,39,0.0,5.8,85,0.00,,FEW,0.00,VWS V14.00,2013-03-06 02:20:00,
2013-03-05 21:25:00,27.4,23.5,30.15,NE,39,0.0,5.8,85,0.00,,FEW,0.00,VWS V14.00,2013-03-06 02:25:00,
2013-03-05 21:30:00,27.3,23.5,30.15,NE,39,0.0,0.0,86,0.00,,FEW,0.00,VWS V14.00,2013-03-06 02:30:00,
2013-03-05 21:35:00,27.1,23.5,30.15,NE,39,0.0,0.0,86,0.00,,FEW,0.00,VWS V14.00,2013-03-06 02:35:00,
2013-03-05 21:40:00,27.0,23.5,30.16,NE,39,0.0,0.0,87,0.00,,FEW,0.00,VWS V14.00,2013-03-06 02:40:00,
2013-03-05 21:45:00,27.0,23.3,30.16,NE,39,0.0,0.0,86,0.00,,FEW,0.00,VWS V14.00,2013-03-06 02:45:00,
2013-03-05 21:50:00,26.8,23.0,30.16,NE,39,0.0,0.0,85,0.00,,FEW,0.00,VWS V14.00,2013-03-06 02:50:00,
2013-03-05 21:55:00,26.5,22.7,30.16,NE,39,0.0,0.0,85,0.00,,FEW,0.00,VWS V14.00,2013-03-06 02:55:00,
2013-03-05 22:00:00,26.4,23.0,30.16,NE,39,0.0,0.0,87,0.00,,FEW,0.00,VWS V14.00,2013-03-06 03:00:00,
2013-03-05 22:05:00,26.4,23.3,30.16,NE,39,0.0,0.0,88,0.00,,FEW,0.00,VWS V14.00,2013-03-06 03:05:00,
2013-03-05 22:10:00,26.5,23.4,30.16,NE,39,0.0,0.0,88,0.00,,FEW,0.00,VWS V14.00,2013-03-06 03:10:00,
2013-03-05 22:15:00,26.2,22.8,30.17,NE,39,0.0,0.0,87,0.00,,FEW,0.00,VWS V14.00,2013-03-06 03:15:00,
2013-03-05 22:20:00,25.8,22.4,30.17,NE,39,0.0,0.0,87,0.00,,FEW,0.00,VWS V14.00,2013-03-06 03:20:00,
2013-03-05 22:25:00,25.6,22.4,30.17,NE,39,0.0,0.0,87,0.00,,FEW,0.00,VWS V14.00,2013-03-06 03:25:00,
2013-03-05 22:30:00,25.6,22.6,30.17,NE,39,0.0,0.0,88,0.00,,FEW,0.00,VWS V14.00,2013-03-06 03:30:00,
2013-03-05 22:35:00,25.9,23.4,30.17,NNE,14,0.0,1.9,90,0.00,,FEW,0.00,VWS V14.00,2013-03-06 03:35:00,
2013-03-05 22:40:00,26.1,23.5,30.17,NNE,14,0.0,1.9,90,0.00,,FEW,0.00,VWS V14.00,2013-03-06 03:40:00,
2013-03-05 22:45:00,26.1,23.6,30.17,NNE,14,0.0,1.9,90,0.00,,FEW,0.00,VWS V14.00,2013-03-06 03:45:00,
2013-03-05 22:50:00,26.1,23.6,30.17,NNE,14,0.0,1.9,90,0.00,,FEW,0.00,VWS V14.00,2013-03-06 03:50:00,
2013-03-05 22:55:00,26.0,23.7,30.17,NNE,14,0.0,1.9,91,0.00,,FEW,0.00,VWS V14.00,2013-03-06 03:55:00,
2013-03-05 23:00:00,25.9,23.5,30.17,NNE,14,0.0,0.0,90,0.00,,FEW,0.00,VWS V14.00,2013-03-06 04:00:00,
2013-03-05 23:05:00,25.9,23.6,30.17,NNE,14,0.0,0.0,91,0.00,,FEW,0.00,VWS V14.00,2013-03-06 04:05:00,
2013-03-05 23:10:00,25.9,23.7,30.17,NNE,14,0.0,0.0,91,0.00,,FEW,0.00,VWS V14.00,2013-03-06 04:10:00,
2013-03-05 23:15:00,26.1,23.8,30.17,NNE,14,0.0,0.0,91,0.00,,FEW,0.00,VWS V14.00,2013-03-06 04:15:00,
2013-03-05 23:20:00,26.2,23.8,30.17,NNE,31,3.0,4.4,90,0.00,,FEW,0.00,VWS V14.00,2013-03-06 04:20:00,
2013-03-05 23:25:00,26.5,24.0,30.16,NNE,17,3.5,4.4,90,0.00,,FEW,0.00,VWS V14.00,2013-03-06 04:25:00,
2013-03-05 23:30:00,26.5,23.8,30.17,NE,52,0.0,3.4,89,0.00,,FEW,0.00,VWS V14.00,2013-03-06 04:30:00,
2013-03-05 23:35:00,26.2,23.5,30.16,NNE,28,5.5,5.5,89,0.00,,FEW,0.00,VWS V14.00,2013-03-06 04:35:00,
2013-03-05 23:40:00,26.2,23.7,30.16,NE,55,0.0,5.5,90,0.00,,FEW,0.00,VWS V14.00,2013-03-06 04:40:00,
2013-03-05 23:45:00,26.3,23.8,30.16,NE,56,0.0,5.5,90,0.00,,FEW,0.00,VWS V14.00,2013-03-06 04:45:00,
2013-03-05 23:50:00,26.3,23.8,30.16,NE,56,0.0,5.5,90,0.00,,FEW,0.00,VWS V14.00,2013-03-06 04:50:00,
2013-03-05 23:55:00,26.3,23.9,30.16,NE,53,0.0,5.5,90,0.00,,FEW,0.00,VWS V14.00,2013-03-06 04:55:00,